星链-34928 (STARLINK-34928)

导读 | 豆包AI

STARLINK-34928是美国SpaceX星链星座中的一颗卫星,于2025年8月14日成功发射。星链项目旨在构建全球卫星互联网星座,为全球提供高速低延迟互联网服务,尤其是覆盖偏远地区和网络欠发达区域。该卫星的发射进一步扩充了星链星座的规模,提升了星座的服务能力与覆盖范围,推动全球互联基础设施建设。

Basic Information
目录编号:
65195
目录名称:
STARLINK-34928
国际标识:
2025-175X
轨道中心:
EARTH
卫星名称:
星链-34928
卫星全名:
星链-34928 (STARLINK-34928)
卫星状态:
在轨 (已飞行258 天)
发射日期:
2025-08-14 UTC
国别 :
美国 (US)
星等 :
--
Orbit Information
数据来源 国际轨道数据 AOE轨道数据
星历时间 2026-04-29T10:59:25+0800
8小时前
查看轨道信息
2026-04-27T01:00:00+0800
2天前
查看轨道信息
半长轴 6927.633km 6927.713km
偏心率 0.0001838 0.0001993
轨道倾角 97.561° 97.572°
近地点辐角 89.270° 89.243°
升交点赤经 352.402° 350.030°
平近点角 270.874° 142.173°
近地点 548.222km 548.195km
远地点 550.77km 550.957km
周期 95.639分钟 95.641分钟
每日圈数 15.056551 15.05629
Detailed Information
固有亮度:
5
最大亮度:
2.5
卫星平台:
Starlink V1.0
覆盖范围:
全球
运营商:
太空探索技术公司
运营商所在国:
美国
制造商(研发单位):
太空探索技术公司
制造商所在国:
美国
使用方式:
暂无
Satellite Introduction
Starlink 计划是 SpaceX 推出的全球卫星互联网项目,通过发射低轨道卫星,为全球尤其是偏远地区提供高速、低延迟的互联网服务。自 2019 年起,Starlink 已部署数千颗卫星,旨在缩小全球数字鸿沟,推动互联网普及。该项目还为军事、航空等行业提供通信支持,带来广泛经济效益。
2D Orbit Map
3D Orbit Map
Orbit Altitude Analysis Chart
Orbit Inclination Analysis Chart
Orbit Comprehensive Analysis Chart
View Comprehensive Chart